カタログに戻る

STARLINK-36078

運用中通信VLEO
NORAD 67050·PAYLOAD·🇺🇸 United States

打ち上げ Dec 11, 2025 から Cape Canaveral Space Force Station

Loading…

次のパス (今後24時間)

TLE

最新Source: CelesTrak SupGP

元期: Sep 14, 2026, 21:08 UTC

1 67050C 25294W   26257.88104167  .00033964  00000+0  12311-2 0  2578
2 67050  43.0028  49.3854 0001407 268.9452 185.2721 15.27536845    11

AllMySatでSTARLINK-36078をリアルタイム追跡

Download on the App Store